Wetterdaten: Freitag, 19.06.2015
Datum Zeit Auen-Temp. Temp gefhlt Luftfeuchte Luftdruck Regen Wind Richtung Richtung Taupunkt Windben
19.06.2015 00:00 13,0 C 12,9 C 89 % 1017,4 hPa 0,7 mm 1,6 km/h (1 Bft) NW 315 11,2 C 3,1 km/h (1 Bft)
19.06.2015 00:05 13,1 C 13,0 C 89 % 1017,4 hPa 0,0 mm 2,3 km/h (1 Bft) W-SW 247 11,3 C 7,0 km/h (2 Bft)
19.06.2015 00:10 13,0 C 12,9 C 89 % 1017,4 hPa 1,4 mm 7,3 km/h (2 Bft) N-NW 337 11,2 C 24,1 km/h (4 Bft)
19.06.2015 00:15 13,0 C 12,8 C 89 % 1017,8 hPa 1,4 mm 10,4 km/h (2 Bft) NW 315 11,2 C 17,9 km/h (3 Bft)
19.06.2015 00:20 12,7 C 12,5 C 90 % 1017,8 hPa 0,7 mm 11,9 km/h (2 Bft) NW 315 11,1 C 25,4 km/h (4 Bft)
19.06.2015 00:25 12,4 C 12,3 C 90 % 1017,8 hPa 0,0 mm 13,2 km/h (3 Bft) NW 315 10,8 C 19,2 km/h (3 Bft)
19.06.2015 00:30 12,0 C 11,8 C 89 % 1017,8 hPa 0,7 mm 14,5 km/h (3 Bft) W-SW 247 10,2 C 26,4 km/h (4 Bft)
19.06.2015 00:35 11,9 C 11,6 C 89 % 1017,9 hPa 0,7 mm 13,2 km/h (3 Bft) W 270 10,1 C 13,2 km/h (3 Bft)
19.06.2015 00:40 11,8 C 11,6 C 89 % 1017,9 hPa 0,0 mm 10,1 km/h (2 Bft) NW 315 10,0 C 6,5 km/h (2 Bft)
19.06.2015 00:45 11,6 C 11,4 C 89 % 1017,9 hPa 0,7 mm 9,3 km/h (2 Bft) W-NW 292 9,8 C 9,6 km/h (2 Bft)
19.06.2015 00:50 11,3 C 11,1 C 89 % 1017,9 hPa 0,0 mm 9,1 km/h (2 Bft) W 270 9,6 C 6,7 km/h (2 Bft)
19.06.2015 00:55 11,1 C 10,9 C 89 % 1018,2 hPa 0,0 mm 8,0 km/h (2 Bft) W-NW 292 9,4 C 4,4 km/h (1 Bft)
19.06.2015 01:00 11,1 C 10,9 C 89 % 1018,2 hPa 0,7 mm 3,1 km/h (1 Bft) S 180 9,4 C 3,6 km/h (1 Bft)
19.06.2015 01:05 11,1 C 10,9 C 89 % 1018,2 hPa 0,0 mm 1,8 km/h (1 Bft) S 180 9,4 C 4,1 km/h (1 Bft)
19.06.2015 01:10 11,0 C 10,8 C 89 % 1018,2 hPa 0,0 mm 2,1 km/h (1 Bft) S 180 9,3 C 0,0 km/h (0 Bft)
19.06.2015 01:15 11,0 C 10,8 C 89 % 1018,2 hPa 0,0 mm 3,1 km/h (1 Bft) S-SO 157 9,3 C 5,7 km/h (1 Bft)
19.06.2015 01:20 11,0 C 10,8 C 89 % 1018,2 hPa 0,0 mm 4,9 km/h (1 Bft) SW 225 9,3 C 7,0 km/h (2 Bft)
19.06.2015 01:25 10,9 C 10,8 C 89 % 1018,2 hPa 0,0 mm 5,2 km/h (1 Bft) S-SW 202 9,2 C 8,5 km/h (2 Bft)
19.06.2015 01:30 10,9 C 10,8 C 89 % 1018,2 hPa 0,7 mm 6,5 km/h (2 Bft) W-SW 247 9,2 C 5,2 km/h (1 Bft)
19.06.2015 01:35 10,9 C 10,8 C 89 % 1018,4 hPa 0,0 mm 5,7 km/h (1 Bft) S 180 9,2 C 6,5 km/h (2 Bft)
19.06.2015 01:40 10,9 C 10,8 C 89 % 1018,4 hPa 0,0 mm 3,6 km/h (1 Bft) W-SW 247 9,2 C 8,0 km/h (2 Bft)
19.06.2015 01:45 10,9 C 10,8 C 90 % 1018,4 hPa 0,0 mm 4,9 km/h (1 Bft) S-SW 202 9,3 C 6,2 km/h (2 Bft)
19.06.2015 01:50 10,8 C 10,7 C 90 % 1018,4 hPa 0,0 mm 5,2 km/h (1 Bft) W-SW 247 9,2 C 0,0 km/h (0 Bft)
19.06.2015 01:55 10,8 C 10,7 C 89 % 1018,5 hPa 0,0 mm 3,4 km/h (1 Bft) SW 225 9,1 C 0,0 km/h (0 Bft)
19.06.2015 02:00 10,8 C 10,7 C 90 % 1018,5 hPa 0,0 mm 1,3 km/h (1 Bft) SO 135 9,2 C 0,0 km/h (0 Bft)
19.06.2015 02:05 10,8 C 10,6 C 90 % 1018,5 hPa 0,0 mm 0,5 km/h (0 Bft) SO 135 9,2 C 0,0 km/h (0 Bft)
19.06.2015 02:10 10,7 C 10,6 C 90 % 1018,5 hPa 0,0 mm 1,3 km/h (1 Bft) S 180 9,1 C 7,0 km/h (2 Bft)
19.06.2015 02:15 10,6 C 10,5 C 90 % 1018,4 hPa 0,0 mm 1,6 km/h (1 Bft) W-SW 247 9,0 C 0,0 km/h (0 Bft)
19.06.2015 02:20 10,6 C 10,5 C 90 % 1018,4 hPa 0,0 mm 2,3 km/h (1 Bft) SW 225 9,0 C 4,7 km/h (1 Bft)
19.06.2015 02:25 10,6 C 10,5 C 90 % 1018,4 hPa 0,0 mm 1,6 km/h (1 Bft) W 270 9,0 C 4,1 km/h (1 Bft)
19.06.2015 02:30 10,6 C 10,5 C 90 % 1018,4 hPa 0,0 mm 0,5 km/h (0 Bft) SO 135 9,0 C 0,0 km/h (0 Bft)
19.06.2015 02:35 10,5 C 10,4 C 90 % 1018,2 hPa 0,0 mm 0,0 km/h (0 Bft) S-SW 202 8,9 C 0,0 km/h (0 Bft)
19.06.2015 02:40 10,5 C 10,4 C 90 % 1018,2 hPa 0,0 mm 0,5 km/h (0 Bft) W-SW 247 8,9 C 0,0 km/h (0 Bft)
19.06.2015 02:45 10,5 C 10,4 C 90 % 1018,2 hPa 0,0 mm 0,5 km/h (0 Bft) S 180 8,9 C 0,0 km/h (0 Bft)
19.06.2015 02:50 10,5 C 10,4 C 90 % 1018,2 hPa 0,0 mm 0,8 km/h (0 Bft) W 270 8,9 C 3,4 km/h (1 Bft)
19.06.2015 02:55 10,5 C 10,4 C 90 % 1018,3 hPa 0,0 mm 0,8 km/h (0 Bft) W-SW 247 8,9 C 0,0 km/h (0 Bft)
19.06.2015 03:00 10,5 C 10,4 C 90 % 1018,3 hPa 0,0 mm 0,3 km/h (0 Bft) S 180 8,9 C 0,0 km/h (0 Bft)
19.06.2015 03:05 10,5 C 10,4 C 90 % 1018,3 hPa 0,0 mm 0,3 km/h (0 Bft) S 180 8,9 C 0,0 km/h (0 Bft)
19.06.2015 03:10 10,4 C 10,3 C 90 % 1018,3 hPa 0,0 mm 1,0 km/h (0 Bft) W-SW 247 8,8 C 0,0 km/h (0 Bft)
19.06.2015 03:15 10,4 C 10,3 C 90 % 1018,1 hPa 0,0 mm 1,0 km/h (0 Bft) S-SW 202 8,8 C 0,0 km/h (0 Bft)
19.06.2015 03:20 10,4 C 10,3 C 90 % 1018,1 hPa 0,0 mm 0,3 km/h (0 Bft) SW 225 8,8 C 2,6 km/h (1 Bft)
19.06.2015 03:25 10,4 C 10,3 C 90 % 1018,1 hPa 0,0 mm 0,3 km/h (0 Bft) S 180 8,8 C 0,0 km/h (0 Bft)
19.06.2015 03:30 10,4 C 10,2 C 90 % 1018,1 hPa 0,0 mm 0,5 km/h (0 Bft) S 180 8,8 C 3,4 km/h (1 Bft)
19.06.2015 03:35 10,4 C 10,2 C 90 % 1017,9 hPa 0,0 mm 0,3 km/h (0 Bft) S 180 8,8 C 0,0 km/h (0 Bft)
19.06.2015 03:40 10,3 C 10,2 C 90 % 1017,9 hPa 0,0 mm 0,0 km/h (0 Bft) S-SW 202 8,7 C 0,0 km/h (0 Bft)
19.06.2015 03:45 10,3 C 10,2 C 90 % 1017,9 hPa 0,0 mm 0,3 km/h (0 Bft) NW 315 8,7 C 0,0 km/h (0 Bft)
19.06.2015 03:50 10,1 C 10,0 C 90 % 1017,9 hPa 0,0 mm 0,3 km/h (0 Bft) SW 225 8,5 C 0,0 km/h (0 Bft)
19.06.2015 03:55 10,1 C 10,0 C 90 % 1017,9 hPa 0,0 mm 0,3 km/h (0 Bft) W-SW 247 8,5 C 2,6 km/h (1 Bft)
19.06.2015 04:00 10,1 C 9,9 C 90 % 1017,9 hPa 0,0 mm 1,3 km/h (1 Bft) SW 225 8,5 C 8,5 km/h (2 Bft)
19.06.2015 04:05 10,1 C 9,9 C 90 % 1017,9 hPa 0,0 mm 1,8 km/h (1 Bft) W 270 8,5 C 0,0 km/h (0 Bft)
19.06.2015 04:10 10,1 C 9,9 C 90 % 1017,9 hPa 0,0 mm 1,3 km/h (1 Bft) S 180 8,5 C 0,0 km/h (0 Bft)
19.06.2015 04:15 10,0 C 9,9 C 90 % 1017,9 hPa 0,0 mm 0,3 km/h (0 Bft) W-SW 247 8,4 C 2,6 km/h (1 Bft)
19.06.2015 04:20 9,9 C 9,8 C 90 % 1017,9 hPa 0,0 mm 0,3 km/h (0 Bft) W-SW 247 8,3 C 0,0 km/h (0 Bft)
19.06.2015 04:25 9,9 C 9,8 C 90 % 1017,9 hPa 0,0 mm 0,5 km/h (0 Bft) S-SO 157 8,3 C 0,0 km/h (0 Bft)
19.06.2015 04:30 10,0 C 9,8 C 90 % 1017,9 hPa 0,0 mm 0,0 km/h (0 Bft) W-SW 247 8,4 C 0,0 km/h (0 Bft)
19.06.2015 04:35 9,9 C 9,8 C 90 % 1017,8 hPa 0,0 mm 0,0 km/h (0 Bft) SW 225 8,3 C 0,0 km/h (0 Bft)
19.06.2015 04:40 9,9 C 9,7 C 90 % 1017,8 hPa 0,0 mm 0,0 km/h (0 Bft) S-SO 157 8,3 C 0,0 km/h (0 Bft)
19.06.2015 04:45 9,7 C 9,6 C 90 % 1017,8 hPa 0,0 mm 0,0 km/h (0 Bft) SW 225 8,1 C 0,0 km/h (0 Bft)
19.06.2015 04:50 9,8 C 9,6 C 90 % 1017,8 hPa 0,0 mm 0,3 km/h (0 Bft) S 180 8,2 C 0,0 km/h (0 Bft)
19.06.2015 04:55 9,8 C 9,6 C 90 % 1018,1 hPa 0,0 mm 0,3 km/h (0 Bft) S-SW 202 8,2 C 0,0 km/h (0 Bft)
19.06.2015 05:00 9,8 C 9,7 C 91 % 1018,1 hPa 0,0 mm 0,3 km/h (0 Bft) SW 225 8,4 C 2,8 km/h (1 Bft)
19.06.2015 05:05 9,9 C 9,7 C 91 % 1018,1 hPa 0,0 mm 0,0 km/h (0 Bft) S-SW 202 8,5 C 0,0 km/h (0 Bft)
19.06.2015 05:10 9,9 C 9,8 C 91 % 1018,1 hPa 0,0 mm 0,3 km/h (0 Bft) NO 45 8,5 C 0,0 km/h (0 Bft)
19.06.2015 05:15 9,8 C 9,7 C 91 % 1017,7 hPa 0,0 mm 0,3 km/h (0 Bft) NW 315 8,4 C 0,0 km/h (0 Bft)
19.06.2015 05:20 9,8 C 9,7 C 91 % 1017,7 hPa 0,0 mm 0,3 km/h (0 Bft) W-SW 247 8,4 C 0,0 km/h (0 Bft)
19.06.2015 05:25 9,8 C 9,7 C 91 % 1017,7 hPa 0,7 mm 0,3 km/h (0 Bft) W-SW 247 8,4 C 0,0 km/h (0 Bft)
19.06.2015 05:30 9,9 C 9,8 C 91 % 1017,7 hPa 0,0 mm 0,5 km/h (0 Bft) SW 225 8,5 C 0,0 km/h (0 Bft)
19.06.2015 05:35 9,9 C 9,8 C 91 % 1017,7 hPa 0,0 mm 1,3 km/h (1 Bft) W-SW 247 8,5 C 6,2 km/h (2 Bft)
19.06.2015 05:40 9,9 C 9,8 C 91 % 1017,7 hPa 0,0 mm 1,8 km/h (1 Bft) W-NW 292 8,5 C 0,0 km/h (0 Bft)
19.06.2015 05:45 10,0 C 9,9 C 91 % 1017,7 hPa 0,0 mm 1,8 km/h (1 Bft) W-SW 247 8,6 C 0,0 km/h (0 Bft)
19.06.2015 05:50 10,0 C 9,9 C 91 % 1017,7 hPa 0,0 mm 1,3 km/h (1 Bft) S-SO 157 8,6 C 3,4 km/h (1 Bft)
19.06.2015 05:55 10,0 C 9,9 C 91 % 1017,7 hPa 0,0 mm 1,0 km/h (0 Bft) W-SW 247 8,6 C 4,4 km/h (1 Bft)
19.06.2015 06:00 10,0 C 10,0 C 88 % 1017,7 hPa 0,0 mm 1,0 km/h (0 Bft) S 180 8,1 C 0,0 km/h (0 Bft)
19.06.2015 06:05 10,0 C 10,0 C 88 % 1017,7 hPa 0,0 mm 0,8 km/h (0 Bft) W-SW 247 8,1 C 0,0 km/h (0 Bft)
19.06.2015 06:10 10,1 C 10,3 C 88 % 1017,7 hPa 0,0 mm 0,0 km/h (0 Bft) SO 135 8,2 C 0,0 km/h (0 Bft)
19.06.2015 06:15 10,2 C 10,4 C 88 % 1017,8 hPa 0,0 mm 0,0 km/h (0 Bft) S 180 8,3 C 0,0 km/h (0 Bft)
19.06.2015 06:20 10,3 C 10,5 C 88 % 1017,8 hPa 0,0 mm 0,0 km/h (0 Bft) W 270 8,4 C 0,0 km/h (0 Bft)
19.06.2015 06:25 10,6 C 11,2 C 88 % 1017,8 hPa 0,0 mm 0,8 km/h (0 Bft) S-SW 202 8,7 C 9,8 km/h (2 Bft)
19.06.2015 06:30 10,8 C 11,8 C 88 % 1017,8 hPa 0,0 mm 1,3 km/h (1 Bft) W-SW 247 8,9 C 3,9 km/h (1 Bft)
19.06.2015 06:35 10,7 C 11,2 C 91 % 1017,7 hPa 0,0 mm 1,0 km/h (0 Bft) O-SO 112 9,3 C 0,0 km/h (0 Bft)
19.06.2015 06:40 10,5 C 10,8 C 91 % 1017,7 hPa 0,0 mm 0,5 km/h (0 Bft) O-SO 112 9,1 C 3,6 km/h (1 Bft)
19.06.2015 06:45 10,5 C 10,5 C 91 % 1017,7 hPa 0,0 mm 1,6 km/h (1 Bft) SW 225 9,1 C 0,0 km/h (0 Bft)
19.06.2015 06:50 10,6 C 10,5 C 90 % 1017,7 hPa 0,0 mm 1,6 km/h (1 Bft) S-SO 157 9,0 C 0,0 km/h (0 Bft)
19.06.2015 06:55 10,6 C 10,7 C 88 % 1017,7 hPa 0,0 mm 1,0 km/h (0 Bft) W-SW 247 8,7 C 3,4 km/h (1 Bft)
19.06.2015 07:00 10,7 C 10,8 C 88 % 1017,7 hPa 0,0 mm 0,3 km/h (0 Bft) W-NW 292 8,8 C 4,1 km/h (1 Bft)
19.06.2015 07:05 10,8 C 10,9 C 88 % 1017,7 hPa 0,0 mm 1,3 km/h (1 Bft) W 270 8,9 C 6,2 km/h (2 Bft)
19.06.2015 07:10 10,9 C 11,0 C 88 % 1017,7 hPa 0,0 mm 2,1 km/h (1 Bft) W-NW 292 9,0 C 7,0 km/h (2 Bft)
19.06.2015 07:15 10,9 C 11,0 C 87 % 1017,8 hPa 0,0 mm 1,8 km/h (1 Bft) SW 225 8,8 C 0,0 km/h (0 Bft)
19.06.2015 07:20 10,9 C 11,0 C 87 % 1017,8 hPa 0,0 mm 1,6 km/h (1 Bft) W-NW 292 8,8 C 4,4 km/h (1 Bft)
19.06.2015 07:25 11,0 C 11,1 C 87 % 1017,8 hPa 0,0 mm 1,0 km/h (0 Bft) W-SW 247 8,9 C 0,0 km/h (0 Bft)
19.06.2015 07:30 11,1 C 11,3 C 87 % 1017,8 hPa 0,0 mm 0,3 km/h (0 Bft) SO 135 9,0 C 0,0 km/h (0 Bft)
19.06.2015 07:35 11,3 C 11,4 C 87 % 1017,8 hPa 0,0 mm 0,3 km/h (0 Bft) S-SW 202 9,2 C 3,1 km/h (1 Bft)
19.06.2015 07:40 11,3 C 11,4 C 87 % 1017,8 hPa 0,0 mm 1,3 km/h (1 Bft) S 180 9,2 C 0,0 km/h (0 Bft)
19.06.2015 07:45 11,3 C 11,3 C 89 % 1017,8 hPa 0,0 mm 1,0 km/h (0 Bft) W-NW 292 9,6 C 0,0 km/h (0 Bft)
19.06.2015 07:50 11,2 C 11,1 C 89 % 1017,8 hPa 0,0 mm 0,0 km/h (0 Bft) W 270 9,5 C 0,0 km/h (0 Bft)
19.06.2015 07:55 11,1 C 11,0 C 89 % 1017,9 hPa 0,0 mm 0,3 km/h (0 Bft) W-SW 247 9,4 C 2,6 km/h (1 Bft)
19.06.2015 08:00 11,1 C 11,0 C 89 % 1017,9 hPa 0,0 mm 0,3 km/h (0 Bft) S-SO 157 9,4 C 0,0 km/h (0 Bft)
19.06.2015 08:05 11,0 C 10,9 C 89 % 1017,9 hPa 0,0 mm 0,0 km/h (0 Bft) S 180 9,3 C 0,0 km/h (0 Bft)
19.06.2015 08:10 10,9 C 10,8 C 89 % 1017,9 hPa 0,0 mm 0,3 km/h (0 Bft) SW 225 9,2 C 0,0 km/h (0 Bft)
19.06.2015 08:15 10,9 C 10,9 C 87 % 1018,2 hPa 0,0 mm 0,3 km/h (0 Bft) W-NW 292 8,8 C 0,0 km/h (0 Bft)
19.06.2015 08:20 11,0 C 10,9 C 87 % 1018,2 hPa 0,0 mm 1,3 km/h (1 Bft) NW 315 8,9 C 0,0 km/h (0 Bft)
19.06.2015 08:25 11,1 C 11,0 C 87 % 1018,2 hPa 0,0 mm 1,8 km/h (1 Bft) W-SW 247 9,0 C 0,0 km/h (0 Bft)
19.06.2015 08:30 11,1 C 11,0 C 89 % 1018,2 hPa 0,0 mm 2,6 km/h (1 Bft) SW 225 9,4 C 4,1 km/h (1 Bft)
19.06.2015 08:35 11,1 C 11,0 C 89 % 1018,2 hPa 0,0 mm 2,1 km/h (1 Bft) W-SW 247 9,4 C 3,6 km/h (1 Bft)
19.06.2015 08:40 11,1 C 11,1 C 87 % 1018,2 hPa 0,0 mm 0,5 km/h (0 Bft) SO 135 9,0 C 0,0 km/h (0 Bft)
19.06.2015 08:45 11,1 C 11,2 C 87 % 1018,2 hPa 0,0 mm 0,5 km/h (0 Bft) W-NW 292 9,0 C 0,0 km/h (0 Bft)
19.06.2015 08:50 11,2 C 11,3 C 87 % 1018,2 hPa 0,0 mm 0,3 km/h (0 Bft) S-SW 202 9,1 C 0,0 km/h (0 Bft)
19.06.2015 08:55 11,2 C 11,4 C 87 % 1018,4 hPa 0,0 mm 1,0 km/h (0 Bft) SW 225 9,1 C 6,5 km/h (2 Bft)
19.06.2015 09:00 11,2 C 11,3 C 87 % 1018,4 hPa 0,0 mm 2,8 km/h (1 Bft) W-SW 247 9,1 C 3,9 km/h (1 Bft)
19.06.2015 09:05 11,3 C 11,4 C 87 % 1018,4 hPa 0,0 mm 2,6 km/h (1 Bft) NW 315 9,2 C 3,6 km/h (1 Bft)
19.06.2015 09:10 11,4 C 11,6 C 87 % 1018,4 hPa 0,0 mm 2,6 km/h (1 Bft) SW 225 9,3 C 6,0 km/h (2 Bft)
19.06.2015 09:15 11,5 C 11,8 C 87 % 1018,2 hPa 0,0 mm 3,6 km/h (1 Bft) W-NW 292 9,4 C 10,4 km/h (2 Bft)
19.06.2015 09:20 11,6 C 11,9 C 87 % 1018,2 hPa 0,0 mm 5,7 km/h (1 Bft) W-NW 292 9,5 C 13,7 km/h (3 Bft)
19.06.2015 09:25 11,5 C 11,5 C 87 % 1018,2 hPa 0,0 mm 9,1 km/h (2 Bft) W-NW 292 9,4 C 18,9 km/h (3 Bft)
19.06.2015 09:30 11,4 C 11,4 C 86 % 1018,2 hPa 0,0 mm 11,1 km/h (2 Bft) NW 315 9,1 C 32,4 km/h (5 Bft)
19.06.2015 09:35 11,4 C 11,6 C 86 % 1018,4 hPa 0,0 mm 10,9 km/h (2 Bft) W-NW 292 9,1 C 14,0 km/h (3 Bft)
19.06.2015 09:40 11,4 C 11,7 C 86 % 1018,4 hPa 0,0 mm 10,1 km/h (2 Bft) W-NW 292 9,1 C 10,6 km/h (2 Bft)
19.06.2015 09:45 11,5 C 11,9 C 86 % 1018,4 hPa 0,0 mm 9,8 km/h (2 Bft) NW 315 9,2 C 10,1 km/h (2 Bft)
19.06.2015 09:50 11,7 C 12,2 C 86 % 1018,4 hPa 0,0 mm 9,3 km/h (2 Bft) NW 315 9,4 C 12,4 km/h (3 Bft)
19.06.2015 09:55 11,6 C 11,9 C 86 % 1018,6 hPa 0,0 mm 9,3 km/h (2 Bft) NW 315 9,3 C 9,8 km/h (2 Bft)
19.06.2015 10:00 11,3 C 11,3 C 86 % 1018,6 hPa 0,0 mm 9,1 km/h (2 Bft) NW 315 9,0 C 6,7 km/h (2 Bft)
19.06.2015 10:05 11,3 C 11,2 C 86 % 1018,6 hPa 0,0 mm 6,7 km/h (2 Bft) NW 315 9,0 C 6,2 km/h (2 Bft)
19.06.2015 10:10 11,1 C 11,0 C 86 % 1018,6 hPa 0,0 mm 6,2 km/h (2 Bft) W-NW 292 8,8 C 8,5 km/h (2 Bft)
19.06.2015 10:15 11,1 C 11,1 C 86 % 1018,7 hPa 0,0 mm 7,3 km/h (2 Bft) W-NW 292 8,8 C 9,1 km/h (2 Bft)
19.06.2015 10:20 11,2 C 11,2 C 86 % 1018,7 hPa 0,7 mm 6,5 km/h (2 Bft) S-SW 202 8,9 C 4,7 km/h (1 Bft)
19.06.2015 10:25 11,2 C 11,3 C 86 % 1018,7 hPa 0,0 mm 5,7 km/h (1 Bft) W 270 8,9 C 5,2 km/h (1 Bft)
19.06.2015 10:30 11,2 C 11,3 C 86 % 1018,7 hPa 0,0 mm 4,9 km/h (1 Bft) NW 315 8,9 C 6,2 km/h (2 Bft)
19.06.2015 10:35 11,2 C 11,4 C 86 % 1018,7 hPa 0,0 mm 4,7 km/h (1 Bft) W-NW 292 8,9 C 4,9 km/h (1 Bft)
19.06.2015 10:40 11,3 C 11,6 C 86 % 1018,7 hPa 0,0 mm 3,1 km/h (1 Bft) W-NW 292 9,0 C 0,0 km/h (0 Bft)
19.06.2015 10:45 11,4 C 11,5 C 86 % 1018,7 hPa 0,0 mm 2,6 km/h (1 Bft) SW 225 9,1 C 5,2 km/h (1 Bft)
19.06.2015 10:50 11,3 C 11,3 C 86 % 1018,7 hPa 0,0 mm 1,8 km/h (1 Bft) NW 315 9,0 C 2,6 km/h (1 Bft)
19.06.2015 10:55 11,2 C 11,1 C 86 % 1018,8 hPa 0,0 mm 2,8 km/h (1 Bft) W-NW 292 8,9 C 7,0 km/h (2 Bft)
19.06.2015 11:00 11,1 C 10,9 C 86 % 1018,8 hPa 0,0 mm 4,9 km/h (1 Bft) SW 225 8,8 C 3,9 km/h (1 Bft)
19.06.2015 11:05 11,0 C 11,0 C 86 % 1018,8 hPa 0,0 mm 4,4 km/h (1 Bft) W-SW 247 8,7 C 6,2 km/h (2 Bft)
19.06.2015 11:10 11,0 C 11,0 C 86 % 1018,8 hPa 0,0 mm 5,2 km/h (1 Bft) W-NW 292 8,7 C 9,3 km/h (2 Bft)
19.06.2015 11:15 11,0 C 11,1 C 86 % 1018,9 hPa 0,0 mm 6,5 km/h (2 Bft) S 180 8,7 C 0,0 km/h (0 Bft)
19.06.2015 11:20 11,1 C 11,3 C 86 % 1018,9 hPa 0,0 mm 4,1 km/h (1 Bft) NW 315 8,8 C 0,0 km/h (0 Bft)
19.06.2015 11:25 11,1 C 11,3 C 86 % 1018,9 hPa 0,0 mm 2,3 km/h (1 Bft) S 180 8,8 C 0,0 km/h (0 Bft)
19.06.2015 11:30 11,2 C 11,4 C 86 % 1018,9 hPa 0,0 mm 2,3 km/h (1 Bft) W-NW 292 8,9 C 9,3 km/h (2 Bft)
19.06.2015 11:35 11,2 C 11,4 C 86 % 1018,8 hPa 0,0 mm 3,1 km/h (1 Bft) W-SW 247 8,9 C 4,1 km/h (1 Bft)
19.06.2015 11:40 11,2 C 11,3 C 86 % 1018,8 hPa 0,0 mm 5,4 km/h (1 Bft) W-NW 292 8,9 C 4,9 km/h (1 Bft)
19.06.2015 11:45 11,2 C 11,5 C 86 % 1018,8 hPa 0,0 mm 5,2 km/h (1 Bft) N-NW 337 8,9 C 0,0 km/h (0 Bft)
19.06.2015 11:50 11,4 C 11,6 C 86 % 1018,8 hPa 0,0 mm 4,4 km/h (1 Bft) W-SW 247 9,1 C 3,6 km/h (1 Bft)
19.06.2015 11:55 11,3 C 11,7 C 86 % 1018,9 hPa 0,0 mm 4,1 km/h (1 Bft) NO 45 9,0 C 0,0 km/h (0 Bft)
19.06.2015 12:00 11,7 C 12,6 C 86 % 1018,9 hPa 0,0 mm 3,1 km/h (1 Bft) N-NW 337 9,4 C 0,0 km/h (0 Bft)
19.06.2015 12:05 12,0 C 13,0 C 85 % 1018,9 hPa 0,0 mm 3,4 km/h (1 Bft) W-SW 247 9,6 C 4,7 km/h (1 Bft)
19.06.2015 12:10 12,3 C 14,1 C 85 % 1018,9 hPa 0,0 mm 6,5 km/h (2 Bft) W 270 9,9 C 8,5 km/h (2 Bft)
19.06.2015 12:15 12,6 C 14,6 C 85 % 1018,9 hPa 0,0 mm 7,5 km/h (2 Bft) NW 315 10,1 C 10,6 km/h (2 Bft)
19.06.2015 12:20 13,3 C 15,9 C 84 % 1018,9 hPa 0,0 mm 5,4 km/h (1 Bft) W-NW 292 10,7 C 9,3 km/h (2 Bft)
19.06.2015 12:25 14,0 C 17,4 C 84 % 1018,9 hPa 0,0 mm 3,9 km/h (1 Bft) N-NW 337 11,3 C 3,4 km/h (1 Bft)
19.06.2015 12:30 14,9 C 19,7 C 83 % 1018,9 hPa 0,0 mm 2,1 km/h (1 Bft) N-NW 337 12,0 C 3,1 km/h (1 Bft)
19.06.2015 12:35 14,7 C 19,6 C 83 % 1019,1 hPa 0,0 mm 3,6 km/h (1 Bft) W-SW 247 11,8 C 7,3 km/h (2 Bft)
19.06.2015 12:40 14,1 C 17,6 C 81 % 1019,1 hPa 0,0 mm 4,7 km/h (1 Bft) W-SW 247 10,9 C 4,7 km/h (1 Bft)
19.06.2015 12:45 13,6 C 16,4 C 81 % 1019,1 hPa 0,0 mm 3,9 km/h (1 Bft) N-NO 22 10,4 C 4,4 km/h (1 Bft)
19.06.2015 12:50 13,2 C 15,0 C 81 % 1019,1 hPa 0,0 mm 5,2 km/h (1 Bft) W 270 10,0 C 12,9 km/h (3 Bft)
19.06.2015 12:55 12,9 C 14,0 C 81 % 1019,2 hPa 0,0 mm 6,2 km/h (2 Bft) W-NW 292 9,7 C 10,1 km/h (2 Bft)
19.06.2015 13:00 12,4 C 12,4 C 82 % 1019,2 hPa 0,0 mm 4,9 km/h (1 Bft) S-SO 157 9,4 C 3,4 km/h (1 Bft)
19.06.2015 13:05 12,4 C 12,2 C 82 % 1019,2 hPa 0,0 mm 3,9 km/h (1 Bft) SO 135 9,4 C 4,9 km/h (1 Bft)
19.06.2015 13:10 12,7 C 13,4 C 82 % 1019,2 hPa 0,0 mm 2,3 km/h (1 Bft) S 180 9,7 C 4,7 km/h (1 Bft)
19.06.2015 13:15 13,1 C 13,9 C 82 % 1019,2 hPa 0,0 mm 1,8 km/h (1 Bft) S-SO 157 10,1 C 0,0 km/h (0 Bft)
19.06.2015 13:20 13,2 C 13,7 C 81 % 1019,2 hPa 0,0 mm 1,6 km/h (1 Bft) S 180 10,0 C 0,0 km/h (0 Bft)
19.06.2015 13:25 13,1 C 13,7 C 81 % 1019,2 hPa 0,0 mm 2,3 km/h (1 Bft) W-NW 292 9,9 C 4,7 km/h (1 Bft)
19.06.2015 13:30 13,2 C 14,0 C 81 % 1019,2 hPa 0,0 mm 3,4 km/h (1 Bft) S 180 10,0 C 4,9 km/h (1 Bft)
19.06.2015 13:35 13,3 C 14,2 C 81 % 1018,9 hPa 0,0 mm 2,6 km/h (1 Bft) N-NO 22 10,1 C 3,1 km/h (1 Bft)
19.06.2015 13:40 13,4 C 14,3 C 81 % 1018,9 hPa 0,0 mm 1,6 km/h (1 Bft) NW 315 10,2 C 10,6 km/h (2 Bft)
19.06.2015 13:45 13,4 C 14,4 C 81 % 1018,9 hPa 0,0 mm 2,8 km/h (1 Bft) NW 315 10,2 C 6,0 km/h (2 Bft)
19.06.2015 13:50 13,5 C 14,7 C 80 % 1018,9 hPa 0,0 mm 6,5 km/h (2 Bft) NW 315 10,1 C 13,2 km/h (3 Bft)
19.06.2015 13:55 13,6 C 15,0 C 79 % 1019,0 hPa 0,0 mm 7,8 km/h (2 Bft) W-NW 292 10,0 C 6,7 km/h (2 Bft)
19.06.2015 14:00 13,9 C 15,7 C 78 % 1019,0 hPa 0,0 mm 5,2 km/h (1 Bft) O-SO 112 10,1 C 4,7 km/h (1 Bft)
19.06.2015 14:05 14,1 C 16,4 C 78 % 1019,0 hPa 0,0 mm 3,4 km/h (1 Bft) W-NW 292 10,3 C 6,5 km/h (2 Bft)
19.06.2015 14:10 14,7 C 17,6 C 77 % 1019,0 hPa 0,0 mm 3,4 km/h (1 Bft) SW 225 10,7 C 3,6 km/h (1 Bft)
19.06.2015 14:15 14,5 C 17,4 C 76 % 1018,8 hPa 0,0 mm 5,4 km/h (1 Bft) W 270 10,3 C 6,0 km/h (2 Bft)
19.06.2015 14:20 14,3 C 16,6 C 76 % 1018,8 hPa 0,0 mm 5,7 km/h (1 Bft) NW 315 10,1 C 11,1 km/h (2 Bft)
19.06.2015 14:25 14,3 C 16,4 C 75 % 1018,8 hPa 0,0 mm 5,7 km/h (1 Bft) SW 225 9,9 C 9,1 km/h (2 Bft)
19.06.2015 14:30 14,4 C 16,6 C 75 % 1018,8 hPa 0,0 mm 4,9 km/h (1 Bft) NW 315 10,0 C 0,0 km/h (0 Bft)
19.06.2015 14:35 14,4 C 16,7 C 74 % 1018,9 hPa 0,0 mm 2,8 km/h (1 Bft) S-SW 202 9,8 C 0,0 km/h (0 Bft)
19.06.2015 14:40 13,9 C 16,0 C 74 % 1018,9 hPa 0,0 mm 2,1 km/h (1 Bft) SW 225 9,3 C 0,0 km/h (0 Bft)
19.06.2015 14:45 13,8 C 15,5 C 75 % 1018,9 hPa 0,0 mm 2,1 km/h (1 Bft) W 270 9,4 C 6,7 km/h (2 Bft)
19.06.2015 14:50 13,6 C 15,0 C 74 % 1018,9 hPa 0,0 mm 4,9 km/h (1 Bft) W-NW 292 9,1 C 7,3 km/h (2 Bft)
19.06.2015 14:55 13,7 C 15,1 C 74 % 1018,8 hPa 0,0 mm 5,4 km/h (1 Bft) SW 225 9,2 C 0,0 km/h (0 Bft)
19.06.2015 15:00 13,8 C 15,2 C 74 % 1018,8 hPa 0,0 mm 1,6 km/h (1 Bft) W 270 9,2 C 0,0 km/h (0 Bft)
19.06.2015 15:05 13,2 C 14,1 C 75 % 1018,8 hPa 0,7 mm 1,0 km/h (0 Bft) NW 315 8,9 C 6,7 km/h (2 Bft)
19.06.2015 15:10 11,9 C 11,9 C 76 % 1018,8 hPa 2,7 mm 4,4 km/h (1 Bft) S 180 7,8 C 7,5 km/h (2 Bft)
19.06.2015 15:15 11,3 C 11,3 C 78 % 1019,1 hPa 0,7 mm 7,0 km/h (2 Bft) SW 225 7,6 C 9,3 km/h (2 Bft)
19.06.2015 15:20 10,8 C 10,7 C 79 % 1019,1 hPa 0,7 mm 6,7 km/h (2 Bft) S 180 7,3 C 8,8 km/h (2 Bft)
19.06.2015 15:25 10,8 C 10,6 C 80 % 1019,1 hPa 0,0 mm 6,7 km/h (2 Bft) W-SW 247 7,5 C 10,1 km/h (2 Bft)
19.06.2015 15:30 10,7 C 10,7 C 80 % 1019,1 hPa 0,0 mm 5,2 km/h (1 Bft) S 180 7,4 C 5,2 km/h (1 Bft)
19.06.2015 15:35 10,8 C 10,8 C 81 % 1019,0 hPa 0,0 mm 5,4 km/h (1 Bft) W-SW 247 7,7 C 11,9 km/h (2 Bft)
19.06.2015 15:40 11,0 C 11,3 C 82 % 1019,0 hPa 0,0 mm 7,0 km/h (2 Bft) S 180 8,0 C 9,1 km/h (2 Bft)
19.06.2015 15:45 11,5 C 11,9 C 82 % 1019,0 hPa 0,0 mm 5,4 km/h (1 Bft) SO 135 8,5 C 0,0 km/h (0 Bft)
19.06.2015 15:50 11,6 C 12,2 C 82 % 1019,0 hPa 0,0 mm 2,1 km/h (1 Bft) S-SO 157 8,6 C 2,6 km/h (1 Bft)
19.06.2015 15:55 11,8 C 12,4 C 83 % 1018,9 hPa 0,0 mm 1,0 km/h (0 Bft) SW 225 9,0 C 3,4 km/h (1 Bft)
19.06.2015 16:00 11,9 C 12,7 C 83 % 1018,9 hPa 0,0 mm 1,8 km/h (1 Bft) NW 315 9,1 C 8,5 km/h (2 Bft)
19.06.2015 16:05 12,1 C 12,7 C 83 % 1018,9 hPa 0,0 mm 4,4 km/h (1 Bft) N-NW 337 9,3 C 7,3 km/h (2 Bft)
19.06.2015 16:10 12,2 C 12,7 C 82 % 1018,9 hPa 0,0 mm 8,3 km/h (2 Bft) W 270 9,2 C 8,8 km/h (2 Bft)
19.06.2015 16:15 12,3 C 12,7 C 81 % 1018,9 hPa 0,0 mm 8,3 km/h (2 Bft) N-NW 337 9,1 C 5,2 km/h (1 Bft)
19.06.2015 16:20 12,3 C 12,7 C 79 % 1018,9 hPa 0,0 mm 7,0 km/h (2 Bft) W-SW 247 8,8 C 4,7 km/h (1 Bft)
19.06.2015 16:25 12,4 C 12,7 C 79 % 1018,9 hPa 0,0 mm 7,3 km/h (2 Bft) NW 315 8,9 C 8,5 km/h (2 Bft)
19.06.2015 16:30 12,6 C 12,8 C 78 % 1018,9 hPa 0,0 mm 6,7 km/h (2 Bft) NO 45 8,9 C 7,3 km/h (2 Bft)
19.06.2015 16:35 12,6 C 12,7 C 78 % 1018,9 hPa 0,0 mm 4,4 km/h (1 Bft) SO 135 8,9 C 6,0 km/h (2 Bft)
19.06.2015 16:40 12,3 C 12,4 C 78 % 1018,9 hPa 0,0 mm 6,2 km/h (2 Bft) N 360 8,6 C 18,1 km/h (3 Bft)
19.06.2015 16:45 12,2 C 12,1 C 77 % 1018,9 hPa 0,0 mm 8,8 km/h (2 Bft) N-NW 337 8,3 C 19,9 km/h (4 Bft)
19.06.2015 16:50 12,0 C 11,8 C 77 % 1018,9 hPa 0,0 mm 7,8 km/h (2 Bft) SW 225 8,1 C 4,1 km/h (1 Bft)
19.06.2015 16:55 11,6 C 11,4 C 77 % 1019,2 hPa 0,0 mm 6,5 km/h (2 Bft) SW 225 7,7 C 13,2 km/h (3 Bft)
19.06.2015 17:00 11,2 C 11,0 C 79 % 1019,2 hPa 0,0 mm 6,0 km/h (2 Bft) SW 225 7,7 C 8,8 km/h (2 Bft)
19.06.2015 17:05 11,1 C 10,9 C 80 % 1019,2 hPa 0,0 mm 6,2 km/h (2 Bft) W 270 7,8 C 0,0 km/h (0 Bft)
19.06.2015 17:10 11,1 C 10,8 C 81 % 1019,2 hPa 0,7 mm 3,4 km/h (1 Bft) S-SW 202 8,0 C 0,0 km/h (0 Bft)
19.06.2015 17:15 11,3 C 11,0 C 82 % 1019,2 hPa 0,0 mm 1,3 km/h (1 Bft) NW 315 8,3 C 2,6 km/h (1 Bft)
19.06.2015 17:20 11,6 C 11,9 C 81 % 1019,2 hPa 0,0 mm 0,8 km/h (0 Bft) S-SW 202 8,5 C 0,0 km/h (0 Bft)
19.06.2015 17:25 11,8 C 12,2 C 81 % 1019,2 hPa 0,0 mm 0,5 km/h (0 Bft) W-SW 247 8,6 C 0,0 km/h (0 Bft)
19.06.2015 17:30 12,0 C 12,2 C 81 % 1019,2 hPa 0,0 mm 0,5 km/h (0 Bft) W-SW 247 8,8 C 5,2 km/h (1 Bft)
19.06.2015 17:35 11,9 C 11,9 C 83 % 1019,2 hPa 0,0 mm 0,3 km/h (0 Bft) W 270 9,1 C 0,0 km/h (0 Bft)
19.06.2015 17:40 11,5 C 11,4 C 83 % 1019,2 hPa 0,0 mm 0,3 km/h (0 Bft) S 180 8,7 C 0,0 km/h (0 Bft)
19.06.2015 17:45 11,3 C 11,2 C 83 % 1019,2 hPa 0,0 mm 0,0 km/h (0 Bft) W-SW 247 8,5 C 0,0 km/h (0 Bft)
19.06.2015 17:50 11,3 C 11,3 C 82 % 1019,2 hPa 0,0 mm 0,0 km/h (0 Bft) SW 225 8,3 C 0,0 km/h (0 Bft)
19.06.2015 17:55 11,3 C 11,3 C 83 % 1019,3 hPa 0,0 mm 0,3 km/h (0 Bft) SW 225 8,5 C 4,7 km/h (1 Bft)
19.06.2015 18:00 11,3 C 11,1 C 84 % 1019,3 hPa 0,0 mm 0,8 km/h (0 Bft) S-SO 157 8,7 C 0,0 km/h (0 Bft)
19.06.2015 18:05 11,1 C 11,0 C 85 % 1019,3 hPa 0,0 mm 1,6 km/h (1 Bft) S-SW 202 8,7 C 4,4 km/h (1 Bft)
19.06.2015 18:10 11,0 C 10,9 C 86 % 1019,3 hPa 0,0 mm 1,3 km/h (1 Bft) SO 135 8,7 C 0,0 km/h (0 Bft)
19.06.2015 18:15 11,0 C 10,9 C 86 % 1019,2 hPa 0,0 mm 1,0 km/h (0 Bft) S-SW 202 8,7 C 0,0 km/h (0 Bft)
19.06.2015 18:20 11,0 C 10,9 C 84 % 1019,2 hPa 0,0 mm 0,8 km/h (0 Bft) S-SO 157 8,4 C 0,0 km/h (0 Bft)
19.06.2015 18:25 10,9 C 10,8 C 86 % 1019,2 hPa 0,0 mm 0,8 km/h (0 Bft) SW 225 8,7 C 0,0 km/h (0 Bft)
19.06.2015 18:30 10,9 C 10,7 C 86 % 1019,2 hPa 0,0 mm 1,0 km/h (0 Bft) S 180 8,7 C 3,1 km/h (1 Bft)
19.06.2015 18:35 10,9 C 10,7 C 86 % 1019,3 hPa 0,0 mm 1,8 km/h (1 Bft) S-SW 202 8,7 C 5,2 km/h (1 Bft)
19.06.2015 18:40 10,9 C 10,8 C 84 % 1019,3 hPa 0,0 mm 4,4 km/h (1 Bft) SW 225 8,3 C 9,8 km/h (2 Bft)
19.06.2015 18:45 10,9 C 10,7 C 87 % 1019,3 hPa 0,0 mm 4,4 km/h (1 Bft) SW 225 8,8 C 4,4 km/h (1 Bft)
19.06.2015 18:50 10,9 C 10,7 C 87 % 1019,3 hPa 0,0 mm 2,6 km/h (1 Bft) S 180 8,8 C 4,1 km/h (1 Bft)
19.06.2015 18:55 10,8 C 10,6 C 87 % 1019,5 hPa 0,0 mm 3,1 km/h (1 Bft) S 180 8,7 C 6,7 km/h (2 Bft)
19.06.2015 19:00 10,8 C 10,6 C 87 % 1019,5 hPa 0,0 mm 2,8 km/h (1 Bft) S 180 8,7 C 3,9 km/h (1 Bft)
19.06.2015 19:05 10,8 C 10,6 C 87 % 1019,5 hPa 0,0 mm 3,1 km/h (1 Bft) S-SW 202 8,7 C 0,0 km/h (0 Bft)
19.06.2015 19:10 10,7 C 10,6 C 87 % 1019,5 hPa 0,0 mm 1,8 km/h (1 Bft) S 180 8,6 C 0,0 km/h (0 Bft)
19.06.2015 19:15 10,7 C 10,6 C 88 % 1019,4 hPa 0,0 mm 1,3 km/h (1 Bft) S-SW 202 8,8 C 4,9 km/h (1 Bft)
19.06.2015 19:20 10,6 C 10,4 C 88 % 1019,4 hPa 0,0 mm 1,3 km/h (1 Bft) S-SW 202 8,7 C 3,1 km/h (1 Bft)
19.06.2015 19:25 10,6 C 10,5 C 85 % 1019,4 hPa 0,0 mm 0,8 km/h (0 Bft) S 180 8,2 C 0,0 km/h (0 Bft)
19.06.2015 19:30 10,6 C 10,5 C 85 % 1019,4 hPa 0,0 mm 0,8 km/h (0 Bft) SW 225 8,2 C 0,0 km/h (0 Bft)
19.06.2015 19:35 10,6 C 10,5 C 85 % 1019,6 hPa 0,0 mm 0,3 km/h (0 Bft) S 180 8,2 C 0,0 km/h (0 Bft)
19.06.2015 19:40 10,6 C 10,4 C 88 % 1019,6 hPa 0,0 mm 1,8 km/h (1 Bft) S 180 8,7 C 5,4 km/h (1 Bft)
19.06.2015 19:45 10,6 C 10,4 C 87 % 1019,6 hPa 0,0 mm 3,1 km/h (1 Bft) S 180 8,5 C 5,2 km/h (1 Bft)
19.06.2015 19:50 10,6 C 10,5 C 85 % 1019,6 hPa 0,0 mm 4,1 km/h (1 Bft) S-SW 202 8,2 C 6,7 km/h (2 Bft)
19.06.2015 19:55 10,7 C 10,5 C 87 % 1019,8 hPa 0,0 mm 4,4 km/h (1 Bft) SW 225 8,6 C 5,4 km/h (1 Bft)
19.06.2015 20:00 10,7 C 10,5 C 87 % 1019,8 hPa 0,0 mm 5,2 km/h (1 Bft) S-SW 202 8,6 C 5,7 km/h (1 Bft)
19.06.2015 20:05 10,7 C 10,6 C 85 % 1019,8 hPa 0,0 mm 4,4 km/h (1 Bft) S 180 8,3 C 2,8 km/h (1 Bft)
19.06.2015 20:10 10,7 C 10,6 C 85 % 1019,8 hPa 0,0 mm 3,4 km/h (1 Bft) SW 225 8,3 C 6,7 km/h (2 Bft)
19.06.2015 20:15 10,8 C 10,6 C 87 % 1019,8 hPa 0,0 mm 4,1 km/h (1 Bft) S 180 8,7 C 5,2 km/h (1 Bft)
19.06.2015 20:20 10,8 C 10,6 C 87 % 1019,8 hPa 0,0 mm 4,4 km/h (1 Bft) S 180 8,7 C 6,0 km/h (2 Bft)
19.06.2015 20:25 10,8 C 10,6 C 87 % 1019,8 hPa 0,0 mm 3,6 km/h (1 Bft) SW 225 8,7 C 4,9 km/h (1 Bft)
19.06.2015 20:30 10,7 C 10,5 C 87 % 1019,8 hPa 0,0 mm 3,4 km/h (1 Bft) S 180 8,6 C 5,4 km/h (1 Bft)
19.06.2015 20:35 10,7 C 10,5 C 87 % 1020,0 hPa 0,0 mm 4,1 km/h (1 Bft) S-SO 157 8,6 C 2,8 km/h (1 Bft)
19.06.2015 20:40 10,7 C 10,5 C 87 % 1020,0 hPa 0,0 mm 4,1 km/h (1 Bft) W-SW 247 8,6 C 2,6 km/h (1 Bft)
19.06.2015 20:45 10,6 C 10,4 C 87 % 1020,0 hPa 0,0 mm 3,1 km/h (1 Bft) W-SW 247 8,5 C 2,6 km/h (1 Bft)
19.06.2015 20:50 10,6 C 10,4 C 87 % 1020,0 hPa 0,0 mm 1,6 km/h (1 Bft) S-SO 157 8,5 C 0,0 km/h (0 Bft)
19.06.2015 20:55 10,6 C 10,4 C 87 % 1019,8 hPa 0,0 mm 0,5 km/h (0 Bft) S-SO 157 8,5 C 0,0 km/h (0 Bft)
19.06.2015 21:00 10,4 C 10,2 C 87 % 1019,8 hPa 0,0 mm 0,0 km/h (0 Bft) SW 225 8,3 C 0,0 km/h (0 Bft)
19.06.2015 21:05 10,4 C 10,2 C 87 % 1019,8 hPa 0,0 mm 0,3 km/h (0 Bft) S 180 8,3 C 2,8 km/h (1 Bft)
19.06.2015 21:10 10,4 C 10,2 C 87 % 1019,8 hPa 0,0 mm 1,6 km/h (1 Bft) S-SW 202 8,3 C 3,6 km/h (1 Bft)
19.06.2015 21:15 10,3 C 10,1 C 87 % 1020,0 hPa 0,0 mm 2,6 km/h (1 Bft) S 180 8,2 C 0,0 km/h (0 Bft)
19.06.2015 21:20 10,3 C 10,1 C 87 % 1020,0 hPa 0,0 mm 2,3 km/h (1 Bft) W-SW 247 8,2 C 0,0 km/h (0 Bft)
19.06.2015 21:25 10,2 C 10,0 C 87 % 1020,0 hPa 0,0 mm 1,3 km/h (1 Bft) SW 225 8,1 C 0,0 km/h (0 Bft)
19.06.2015 21:30 10,0 C 9,8 C 86 % 1020,0 hPa 0,0 mm 0,3 km/h (0 Bft) S 180 7,8 C 0,0 km/h (0 Bft)
19.06.2015 21:35 9,9 C 9,7 C 86 % 1020,1 hPa 0,0 mm 0,5 km/h (0 Bft) S 180 7,7 C 3,9 km/h (1 Bft)
19.06.2015 21:40 9,8 C 9,5 C 86 % 1020,1 hPa 0,0 mm 0,8 km/h (0 Bft) S 180 7,6 C 3,9 km/h (1 Bft)
19.06.2015 21:45 9,7 C 9,5 C 86 % 1020,1 hPa 0,0 mm 1,8 km/h (1 Bft) S-SO 157 7,5 C 5,2 km/h (1 Bft)
19.06.2015 21:50 9,7 C 9,5 C 87 % 1020,1 hPa 0,0 mm 3,6 km/h (1 Bft) S-SW 202 7,6 C 5,7 km/h (1 Bft)
19.06.2015 21:55 9,7 C 9,5 C 87 % 1020,2 hPa 0,0 mm 4,1 km/h (1 Bft) S 180 7,6 C 5,7 km/h (1 Bft)
19.06.2015 22:00 9,7 C 9,5 C 87 % 1020,2 hPa 0,0 mm 5,2 km/h (1 Bft) SW 225 7,6 C 13,7 km/h (3 Bft)
19.06.2015 22:05 9,7 C 9,5 C 87 % 1020,2 hPa 0,0 mm 5,4 km/h (1 Bft) S 180 7,6 C 4,7 km/h (1 Bft)
19.06.2015 22:10 9,7 C 9,5 C 87 % 1020,2 hPa 0,0 mm 3,9 km/h (1 Bft) S-SO 157 7,6 C 0,0 km/h (0 Bft)
19.06.2015 22:15 9,6 C 9,4 C 88 % 1020,4 hPa 0,0 mm 2,1 km/h (1 Bft) S 180 7,7 C 0,0 km/h (0 Bft)
19.06.2015 22:20 9,6 C 9,4 C 88 % 1020,4 hPa 0,0 mm 0,3 km/h (0 Bft) SO 135 7,7 C 0,0 km/h (0 Bft)
19.06.2015 22:25 9,4 C 9,3 C 88 % 1020,4 hPa 0,0 mm 0,0 km/h (0 Bft) O-SO 112 7,5 C 0,0 km/h (0 Bft)
19.06.2015 22:30 9,4 C 9,2 C 89 % 1020,4 hPa 0,0 mm 0,0 km/h (0 Bft) W-SW 247 7,7 C 0,0 km/h (0 Bft)
19.06.2015 22:35 9,4 C 9,2 C 89 % 1020,2 hPa 0,0 mm 0,0 km/h (0 Bft) SO 135 7,7 C 2,6 km/h (1 Bft)
19.06.2015 22:40 9,3 C 9,2 C 89 % 1020,2 hPa 0,0 mm 0,0 km/h (0 Bft) SO 135 7,6 C 0,0 km/h (0 Bft)
19.06.2015 22:45 9,3 C 9,1 C 89 % 1020,2 hPa 0,0 mm 0,0 km/h (0 Bft) S-SO 157 7,6 C 0,0 km/h (0 Bft)
19.06.2015 22:50 9,2 C 9,1 C 89 % 1020,2 hPa 0,0 mm 0,0 km/h (0 Bft) SO 135 7,5 C 0,0 km/h (0 Bft)
19.06.2015 22:55 9,2 C 9,1 C 89 % 1020,4 hPa 0,0 mm 0,0 km/h (0 Bft) O-SO 112 7,5 C 0,0 km/h (0 Bft)
19.06.2015 23:00 9,2 C 9,1 C 86 % 1020,4 hPa 0,0 mm 0,0 km/h (0 Bft) SO 135 7,0 C 0,0 km/h (0 Bft)
19.06.2015 23:05 9,2 C 9,1 C 89 % 1020,4 hPa 0,0 mm 0,3 km/h (0 Bft) S 180 7,5 C 0,0 km/h (0 Bft)
19.06.2015 23:10 9,2 C 9,1 C 89 % 1020,4 hPa 0,0 mm 0,3 km/h (0 Bft) S 180 7,5 C 0,0 km/h (0 Bft)
19.06.2015 23:15 9,2 C 9,1 C 86 % 1020,1 hPa 0,0 mm 0,0 km/h (0 Bft) S 180 7,0 C 0,0 km/h (0 Bft)
19.06.2015 23:20 9,2 C 9,1 C 86 % 1020,1 hPa 0,0 mm 0,0 km/h (0 Bft) S 180 7,0 C 0,0 km/h (0 Bft)
19.06.2015 23:25 9,2 C 9,1 C 90 % 1020,1 hPa 0,0 mm 0,0 km/h (0 Bft) S 180 7,6 C 0,0 km/h (0 Bft)
19.06.2015 23:30 9,2 C 9,1 C 87 % 1020,1 hPa 0,0 mm 0,0 km/h (0 Bft) S 180 7,2 C 0,0 km/h (0 Bft)
19.06.2015 23:35 9,2 C 9,1 C 87 % 1020,2 hPa 0,0 mm 0,0 km/h (0 Bft) S 180 7,2 C 0,0 km/h (0 Bft)
19.06.2015 23:40 9,2 C 9,1 C 87 % 1020,2 hPa 0,0 mm 0,0 km/h (0 Bft) S 180 7,2 C 0,0 km/h (0 Bft)
19.06.2015 23:45 9,2 C 9,1 C 87 % 1020,2 hPa 0,0 mm 0,0 km/h (0 Bft) S-SW 202 7,2 C 0,0 km/h (0 Bft)
19.06.2015 23:50 9,2 C 9,2 C 87 % 1020,2 hPa 0,0 mm 0,8 km/h (0 Bft) S-SW 202 7,2 C 0,0 km/h (0 Bft)
19.06.2015 23:55 9,4 C 9,2 C 90 % 1020,2 hPa 0,0 mm 0,8 km/h (0 Bft) O-SO 112 7,8 C 0,0 km/h (0 Bft)
_ Min-Zeit 23:50 23:45 15:00 00:10 - 23:45 - - 23:20 23:55
Minimum _ 9,2 C 9,1 C 74 % 1017,4 hPa - 0,0 km/h (0 Bft) - - 7,0 C 0,0 km/h (0 Bft)
_ Max-Zeit 12:30 12:30 06:45 23:10 15:10 00:30 - - 12:30 09:30
Maximum _ 14,9 C 19,7 C 91 % 1020,4 hPa 2,7 mm 14,5 km/h
W-SW (3 Bft)
- - 12,0 C 32,4 km/h
NW (5 Bft)
Durchschnitt _ 11,1 C 11,3 C 86 % 1018,8 hPa #14,4 mm 3,0 km/h (1 Bft) S - 8,9 C 4,0 km/h (1 Bft)